PICSAT (43132 NORAD) Tracking and Keplerian Element Data

This shows tracking and keplerian element data for the satellite.

Feedback or suggestion? Click here.




ElementValue
Catalog43132
NamePICSAT
Epoch Orbit16823
Epoch Day21.19683957
Epoch Year2021
RAAN97.0185
Inclination97.4257
Eccentricity0.0009537
Argument of Perigee17.4187
Mean Anonmoly342.7376
Mean Motion15.25206162
Decay Rate1.545E-05
L11 43132U 18004X 21021.19683957 .00001545 00000-0 64372-4 0 9991
L22 43132 97.4257 97.0185 0009537 17.4187 342.7376 15.25206162168233

Live tracking and technical data element details for PICSAT (NORAD 43132). PICSAT can be tracked NOW for your location showing map with azimuth and elevation plus other details from your city location.

Track the satellite on the map from your city or location and see movement details for azimuth, elevation, latitude, longitude, range, height, and movement on the map or in text.







IsCatalogInMostPopularTable: catalog: 43132, numindb: 685
Update: records affected: 1



GetName: 43132 PICSAT

Hit Count: updated at: Sat, 23 Jan 2021 05:37:42 GMT